Regional Weather Roundup
Issued by NWS Cleveland, OH

Home | Current Version | Previous Version | Text Only | Print | Product List | Glossary Off
Versions: 1 2 3 4 5 6 7 8 9 10 11 12 13 14 15 16 17 18 19 20 21 22 23 24 25 26 27 28 29 30 31 32 33 34 35 36 37 38 39 40 41 42 43 44 45 46 47 48 49 50

000
ASUS41 KCLE 022310
RWRCLE
OHIO REGIONAL WEATHER ROUNDUP
NATIONAL WEATHER SERVICE CLEVELAND, OH
700 PM EDT THU JUL 02 2015

NOTE: "FAIR" INDICATES FEW OR NO CLOUDS BELOW 12,000 FEET WITH NO
SIGNIFICANT WEATHER AND/OR OBSTRUCTIONS TO VISIBILITY.

OHZ001>008-015>018-024>027-034-035-043-044-030000-
   NORTHWEST OHIO

CITY           SKY/WX    TMP DP  RH WIND       PRES   REMARKS
DEFIANCE       PTSUNNY   73  55  53 E10       29.95S
FINDLAY        SUNNY     72  55  55 NE13      29.94S
TOLEDO EXPRESS SUNNY     72  53  51 NE9       29.96S
TOLEDO EXEC    SUNNY     71  52  50 E8        29.97S
LIMA           CLOUDY    71  58  63 NE13      29.94S
$$

OHZ009>014-019>023-028>033-038-089-030000-
   NORTHEAST OHIO

CITY           SKY/WX    TMP DP  RH WIND       PRES   REMARKS
CLE-HOPKINS    MOSUNNY   69  54  58 N13       29.98S
CLE-LAKEFRONT  SUNNY     68  58  70 NE12      29.95S
CUY CO. ARPT   SUNNY     70  55  60 NE10      29.97F
LORAIN-ELYRIA  SUNNY     69  52  54 NE10      29.97S
ASHTABULA      SUNNY     67  52  58 NE7       29.97F
AKRON-CANTON   MOSUNNY   74  56  53 N10       29.94S
WOOSTER        SUNNY     71  57  61 N10       29.95S
MANSFIELD      SUNNY     70  56  61 N12       29.95S
YOUNGSTOWN     MOSUNNY   71  56  58 N12       29.94S
$$

OHZ042-051>053-060>062-070>072-077>081-030000-
  SOUTHWEST OHIO

CITY           SKY/WX    TMP DP  RH WIND       PRES   REMARKS
CINC-COVINGTON PTSUNNY   75  68  78 SE9       29.88S
CINC-LUNKEN    LGT RAIN  72  70  93 S5        29.88R
HAMILTON       LGT RAIN  76  67  73 E10       29.88S
DAYTON         PTSUNNY   74  63  68 E9        29.92S
WRIGHT-PAT AFB MOSUNNY   74  60  60 NE12      29.90F
DAYTON GENERAL PTSUNNY   74  64  71 E12       29.89S
WILMINGTON     PTSUNNY   73  63  70 E7        29.90S
$$

OHZ036-037-039>041-045>050-054>059-063>069-073>076-082>088-030000-
  CENTRAL AND SOUTHEAST OHIO

CITY           SKY/WX    TMP DP  RH WIND       PRES   REMARKS
COLUMBUS       PTSUNNY   73  60  63 CALM      29.91S
OSU AIRPORT    MOSUNNY   73  60  63 E6        29.92S
BOLTON FIELD   CLOUDY    72  63  73 E3        29.92S
RICKENBACK AFB CLOUDY    70  63  77 E6        29.92S
NEWARK         CLOUDY    74  59  59 E5        29.92S
MARION         SUNNY     71  58  63 NE14      29.94S
LANCASTER      PTSUNNY   72  64  76 E5        29.93S
ZANESVILLE     NOT AVBL
NEW PHILLY     MOSUNNY   73  57  57 N3        29.92S
$$



USA.gov is the U.S. government's official web portal to all federal, state and local government web resources and services.